"Pseudo-MPEC" for P11UePL

Created 2024 May 21 19:22:05 UT using Find_Orb

Click here for an explanation of pseudo-MPECs

 
 Astrometry: 
     P11UePL  C2024 05 06.ed[/LFXEH_1O:-R][4NJ0=cAstrometryyQ;2mGCVf.7u47.Y9mF51
     P11UePL  C2024 05 06Dha+Aredacted;Df/Mjsj-LvI^iJ(y6j62$click'@7Ahereg[/NF51
     P11UePL* C2024 05 06f*L,nyPgj7:@:R/dZ/!Jyg('-sN.eNJ(4(+LVylpRU5f6k#MydGUF51
     P11UePL  C2024 05 068/@n^jvrbforX7n*GGvqy,,fJB1hy^Ac+vU;qIS;F%$$Lc=s95MEF51
     P11UePL  C2024 05 06Amp$8=b4[n06c[`w`AU8'[/TuD'@explanation@Nj^R)U;=6c''F52
     P11UePL  C2024 05 06L=ABn[=Iy/*5?80ct*]HuA!$QpugYn_?i[3Jx6J.@_'3ID-S(UN#F52

Station data:
(F51) Pan-STARRS 1, Haleakala  (N20.707234 W156.255910)  US/Hawaii.
   Observers J. Bulger, T. Lowe, A. Schultz, M. Willman. Measurers K.
   Chambers, S. Chastel, T. de Boer, L. Denneau, J. Fairlamb, H. Flewelling,
   M. Huber, C.-C. Lin, E. Magnier, Y. Ramanjooloo, R. Wainscoat, R. Weryk.
   1.8-m Ritchey-Chrétien + CCD.
(F52) Pan-STARRS 2, Haleakala  (N20.707382 W156.255910)  US/Hawaii.
   Observers J. Bulger, T. Dukes, T. Lowe, A. Schultz, M. Willman. Measurers
   K. Chambers, S. Chastel, T. de Boer, L. Denneau, J. Fairlamb, H.
   Flewelling, M. Huber, C.-C. Lin, E. Magnier, Y. Ramanjooloo, R. Wainscoat,
   R. Weryk. 1.8-m Ritchey-Chrétien + CCD.

Orbital elements:  P11UePL
   Perihelion 2024 Mar 22.67306 +/- 0.146 TT = 16:09:12 (JD 2460392.17306)
Epoch 2024 May  7.0 TT = JDT 2460437.5   Earth MOID: 0.0042   Ma: 0.0112
M  27.17569418 +/- 0.6              (J2000 ecliptic)             AutoNEOCP
n   0.59954834 +/- 0.0117           Peri.  125.72110 +/- 0.21
a   1.39289990 +/- 0.0182           Node    46.12877 +/- 0.0019
e   0.3456165 +/- 0.0108            Incl.    4.87870 +/- 0.07
P   1.64/600.44d           H 27.89  G  0.15   U  9.8
q 0.91149063 +/- 0.00313    Q 1.87430916 +/- 0.0395
From 6 observations 2024 May 6 (2.9 hr); mean residual 0".08
Residuals in arcseconds: 
240506 F51  .05+  .01-    240506 F51  .06+  .18+    240506 F52  .02+  .08-    
240506 F51  .10-  .07-    240506 F51  .00   .10-    240506 F52  .02-  .08+    

Ephemerides (geocentric):
Date (UTC) HH   RA             Dec           delta  r     elong  mag " sig PA
---- --------  ------------   ------------  ------ ------ -----  --- --------
2024 05 21 19  15 58 59.400   -37 32 58.65  .08475 1.0934 162.8 23.6  616 159
2024 05 21 20  15 58 59.480   -37 33 11.90  .08496 1.0937 162.8 23.6  616 159
2024 05 21 21  15 58 59.558   -37 33 25.02  .08516 1.0939 162.8 23.6  617 159
2024 05 21 22  15 58 59.637   -37 33 37.99  .08537 1.0941 162.8 23.6  617 159
2024 05 21 23  15 58 59.714   -37 33 50.84  .08558 1.0943 162.8 23.6  617 159
2024 05 22 00  15 58 59.792   -37 34 03.54  .08578 1.0945 162.8 23.6  618 159
2024 05 22 01  15 58 59.868   -37 34 16.12  .08599 1.0947 162.8 23.6  618 159
2024 05 22 02  15 58 59.945   -37 34 28.56  .08620 1.0949 162.8 23.6  618 159
2024 05 22 03  15 59 00.021   -37 34 40.87  .08640 1.0951 162.8 23.6  619 159
2024 05 22 04  15 59 00.096   -37 34 53.05  .08661 1.0953 162.8 23.6  619 159
2024 05 22 05  15 59 00.171   -37 35 05.10  .08682 1.0955 162.8 23.6  619 159
2024 05 22 06  15 59 00.246   -37 35 17.02  .08702 1.0957 162.8 23.7  620 159
2024 05 22 07  15 59 00.320   -37 35 28.81  .08723 1.0960 162.8 23.7  620 159
2024 05 22 08  15 59 00.394   -37 35 40.47  .08744 1.0962 162.8 23.7  620 159
2024 05 22 09  15 59 00.468   -37 35 52.01  .08765 1.0964 162.8 23.7  621 159
2024 05 22 10  15 59 00.541   -37 36 03.42  .08785 1.0966 162.8 23.7  621 159
2024 05 22 11  15 59 00.614   -37 36 14.70  .08806 1.0968 162.9 23.7  621 159
2024 05 22 12  15 59 00.686   -37 36 25.86  .08827 1.0970 162.9 23.7  622 159
2024 05 22 13  15 59 00.759   -37 36 36.89  .08848 1.0972 162.9 23.7  622 159
2024 05 22 14  15 59 00.830   -37 36 47.80  .08868 1.0974 162.9 23.7  622 159
2024 05 22 15  15 59 00.902   -37 36 58.59  .08889 1.0976 162.9 23.7  623 159
2024 05 22 16  15 59 00.973   -37 37 09.26  .08910 1.0978 162.9 23.7  623 159
2024 05 22 17  15 59 01.044   -37 37 19.80  .08931 1.0981 162.9 23.7  623 159
2024 05 22 18  15 59 01.115   -37 37 30.22  .08951 1.0983 162.9 23.7  624 159
2024 05 22 19  15 59 01.186   -37 37 40.53  .08972 1.0985 162.9 23.7  624 159
2024 05 22 20  15 59 01.256   -37 37 50.71  .08993 1.0987 162.9 23.7  624 159
2024 05 22 21  15 59 01.326   -37 38 00.78  .09014 1.0989 162.9 23.7  624 159
2024 05 22 22  15 59 01.396   -37 38 10.72  .09034 1.0991 162.9 23.7  625 159
2024 05 22 23  15 59 01.465   -37 38 20.55  .09055 1.0993 162.9 23.7  625 159
2024 05 23 00  15 59 01.535   -37 38 30.27  .09076 1.0995 162.9 23.7  625 159
2024 05 23 01  15 59 01.604   -37 38 39.87  .09097 1.0997 162.9 23.7  626 159
2024 05 23 02  15 59 01.673   -37 38 49.35  .09118 1.0999 162.9 23.8  626 159
2024 05 23 03  15 59 01.742   -37 38 58.71  .09139 1.1002 162.9 23.8  626 159
2024 05 23 04  15 59 01.811   -37 39 07.97  .09159 1.1004 162.9 23.8  627 159
2024 05 23 05  15 59 01.879   -37 39 17.11  .09180 1.1006 162.9 23.8  627 159
2024 05 23 06  15 59 01.948   -37 39 26.13  .09201 1.1008 163.0 23.8  627 159
2024 05 23 07  15 59 02.016   -37 39 35.05  .09222 1.1010 163.0 23.8  627 159
2024 05 23 08  15 59 02.084   -37 39 43.85  .09243 1.1012 163.0 23.8  628 159
2024 05 23 09  15 59 02.152   -37 39 52.54  .09264 1.1014 163.0 23.8  628 159
2024 05 23 10  15 59 02.220   -37 40 01.13  .09285 1.1016 163.0 23.8  628 159
2024 05 23 11  15 59 02.288   -37 40 09.60  .09306 1.1018 163.0 23.8  628 159
2024 05 23 12  15 59 02.356   -37 40 17.96  .09326 1.1021 163.0 23.8  629 159
2024 05 23 13  15 59 02.424   -37 40 26.21  .09347 1.1023 163.0 23.8  629 159
2024 05 23 14  15 59 02.492   -37 40 34.36  .09368 1.1025 163.0 23.8  629 159
2024 05 23 15  15 59 02.560   -37 40 42.40  .09389 1.1027 163.0 23.8  630 159
2024 05 23 16  15 59 02.627   -37 40 50.33  .09410 1.1029 163.0 23.8  630 159
2024 05 23 17  15 59 02.695   -37 40 58.16  .09431 1.1031 163.0 23.8  630 159
2024 05 23 18  15 59 02.763   -37 41 05.88  .09452 1.1033 163.0 23.8  630 159